Weather History for KCMD - March, 2014

Change the Weather History Date:

Wednesday, March 26, 2014

  Actual Average Record
Temperature  
Mean Temperature 37 °F -  
Max Temperature 52 °F - - ()
Min Temperature 22 °F - - ()
Degree Days  
Heating Degree Days 28    
Moisture  
Dew Point 17 °F    
Average Humidity 48    
Maximum Humidity 85    
Minimum Humidity 22    
Precipitation  
Precipitation 0.00 in - - ()
Sea Level Pressure  
Sea Level Pressure 30.30 in    
Wind  
Wind Speed 2 mph (NE)    
Max Wind Speed 13 mph    
Max Gust Speed 17 mph    
Visibility 10 miles    
Events      
Averages and records for this station are not official NWS values.
T = Trace of Precipitation, MM = Missing Value Source: NWS Daily Summary

Daily Weather History Graph

Daily Weather History Graph

Search for Another Location

Airport or City:

Trip Planner

Search our weather history database for the weather conditions in past years. The results will help you decide how hot, cold, wet, or windy it might be!

Date:

Astronomy

Mar. 26, 2014 Rise Set
Actual Time 6:42 AM CDT 7:03 PM CDT
Civil Twilight 6:17 AM CDT 7:28 PM CDT
Nautical Twilight 5:48 AM CDT 7:58 PM CDT
Astronomical Twilight 5:18 AM CDT 8:28 PM CDT
Moon 3:40 AM CDT (3/26) 2:52 PM CDT (3/26)
Length of Visible Light 13h 11m
Length of Day
12h 20m
Waning Crescent, 21% of the Moon is Illuminated
Mar 26
Waning Crescent
Mar 30
New
Apr 7
First Quarter
Apr 15
Full
Apr 22
Last Quarter

Hourly Weather History & Observations

Time (CDT) Temp. Windchill Dew Point Humidity Pressure Visibility Wind Dir Wind Speed Gust Speed Precip Events Conditions
12:15 AM 31.6 °F - 16.5 °F 54% 30.26 in 10.0 mi Calm Calm - N/A   Clear
12:35 AM 31.1 °F - 16.2 °F 54% 30.26 in 10.0 mi Calm Calm - N/A   Clear
12:55 AM 30.2 °F - 17.1 °F 58% 30.27 in 10.0 mi Calm Calm - N/A   Clear
1:15 AM 28.2 °F - 18.5 °F 67% 30.27 in 10.0 mi Calm Calm - N/A   Clear
1:35 AM 27.5 °F - 19.2 °F 71% 30.27 in 10.0 mi Calm Calm - N/A   Clear
1:55 AM 26.8 °F - 18.5 °F 71% 30.27 in 10.0 mi Calm Calm - N/A   Clear
2:15 AM 25.7 °F - 19.8 °F 78% 30.26 in 10.0 mi Calm Calm - N/A   Clear
2:35 AM 25.3 °F - 19.9 °F 80% 30.26 in 10.0 mi Calm Calm - N/A   Clear
2:55 AM 25.0 °F - 20.1 °F 82% 30.26 in 10.0 mi Calm Calm - N/A   Clear
3:15 AM 24.8 °F - 20.7 °F 84% 30.26 in 10.0 mi Calm Calm - N/A   Clear
3:35 AM 24.1 °F - 19.9 °F 84% 30.26 in 10.0 mi Calm Calm - N/A   Clear
3:55 AM 23.9 °F - 20.1 °F 85% 30.26 in 10.0 mi Calm Calm - N/A   Clear
4:15 AM 23.9 °F - 19.4 °F 83% 30.27 in 10.0 mi Calm Calm - N/A   Clear
4:35 AM 24.1 °F - 19.2 °F 82% 30.28 in 10.0 mi Calm Calm - N/A   Clear
4:55 AM 24.6 °F - 18.1 °F 76% 30.28 in 10.0 mi Calm Calm - N/A   Clear
5:15 AM 25.9 °F 21.7 °F 16.9 °F 69% 30.29 in 10.0 mi North 3.5 mph - N/A   Clear
5:35 AM 26.6 °F 21.2 °F 16.2 °F 65% 30.30 in 10.0 mi NNE 4.6 mph - N/A   Clear
5:55 AM 25.5 °F 19.9 °F 16.5 °F 69% 30.30 in 10.0 mi NNE 4.6 mph - N/A   Clear
6:15 AM 25.3 °F - 16.5 °F 69% 30.31 in 10.0 mi Calm Calm - N/A   Clear
6:35 AM 24.6 °F - 17.2 °F 74% 30.33 in 10.0 mi Calm Calm - N/A   Clear
6:55 AM 22.8 °F - 18.3 °F 83% 30.33 in 10.0 mi Calm Calm - N/A   Clear
7:15 AM 23.2 °F - 18.5 °F 82% 30.34 in 10.0 mi Calm Calm - N/A   Clear
7:35 AM 24.4 °F - 19.4 °F 81% 30.35 in 10.0 mi Calm Calm - N/A   Clear
7:55 AM 26.8 °F - 19.6 °F 74% 30.36 in 10.0 mi Calm Calm - N/A   Clear
8:15 AM 29.8 °F 26.3 °F 18.9 °F 64% 30.37 in 10.0 mi North 3.5 mph - N/A   Clear
8:35 AM 31.8 °F 25.4 °F 17.6 °F 56% 30.37 in 10.0 mi NNE 6.9 mph - N/A   Clear
8:55 AM 32.7 °F 23.4 °F 17.1 °F 53% 30.37 in 10.0 mi NNE 12.7 mph 16.1 mph N/A   Clear
9:15 AM 34.3 °F 27.7 °F 16.0 °F 47% 30.37 in 10.0 mi NNE 8.1 mph - N/A   Clear
9:35 AM 35.6 °F 28.0 °F 14.5 °F 42% 30.38 in 10.0 mi NE 10.4 mph - N/A   Clear
9:55 AM 36.7 °F 34.1 °F 13.5 °F 39% 30.39 in 10.0 mi NE 3.5 mph - N/A   Clear
10:15 AM 37.8 °F 33.3 °F 13.6 °F 37% 30.40 in 10.0 mi North 5.8 mph - N/A   Clear
10:35 AM 38.5 °F 34.1 °F 14.7 °F 38% 30.40 in 10.0 mi North 5.8 mph - N/A   Clear
10:55 AM 39.4 °F 33.2 °F 14.7 °F 37% 30.39 in 10.0 mi NNE 9.2 mph - N/A   Clear
11:15 AM 40.3 °F 36.3 °F 13.8 °F 34% 30.39 in 10.0 mi NNW 5.8 mph 17.3 mph N/A   Clear
11:35 AM 41.4 °F 36.8 °F 13.3 °F 32% 30.39 in 10.0 mi North 6.9 mph - N/A   Clear
11:55 AM 41.9 °F 38.2 °F 14.0 °F 32% 30.38 in 10.0 mi NW 5.8 mph - N/A   Clear
12:15 PM 42.6 °F 37.8 °F 14.5 °F 32% 30.37 in 10.0 mi North 8.1 mph - N/A   Clear
12:35 PM 43.7 °F 41.1 °F 13.3 °F 29% 30.37 in 10.0 mi West 4.6 mph - N/A   Clear
12:55 PM 45.0 °F 43.5 °F 14.2 °F 29% 30.36 in 10.0 mi NW 3.5 mph - N/A   Clear
1:15 PM 45.0 °F 42.6 °F 13.3 °F 28% 30.36 in 10.0 mi NNW 4.6 mph - N/A   Clear
1:35 PM 45.1 °F 43.7 °F 11.5 °F 26% 30.34 in 10.0 mi North 3.5 mph - N/A   Clear
1:55 PM 46.0 °F - 12.7 °F 26% 30.33 in 10.0 mi Calm Calm - N/A   Clear
2:15 PM 46.9 °F - 13.1 °F 26% 30.32 in 10.0 mi Calm Calm - N/A   Clear
2:35 PM 47.7 °F - 13.5 °F 25% 30.31 in 10.0 mi WNW 3.5 mph - N/A   Clear
2:55 PM 48.6 °F - 12.9 °F 24% 30.30 in 10.0 mi ESE 4.6 mph - N/A   Clear
3:15 PM 49.3 °F - 14.0 °F 24% 30.29 in 10.0 mi NE 3.5 mph - N/A   Clear
3:35 PM 50.0 °F - 14.5 °F 24% 30.28 in 10.0 mi Calm Calm - N/A   Clear
3:55 PM 50.5 °F - 14.7 °F 24% 30.27 in 10.0 mi Calm Calm - N/A   Clear
4:15 PM 50.7 °F - 13.5 °F 23% 30.27 in 10.0 mi NNE 3.5 mph - N/A   Clear
4:35 PM 51.4 °F - 14.4 °F 23% 30.27 in 10.0 mi Calm Calm - N/A   Clear
4:55 PM 52.0 °F - 14.2 °F 22% 30.26 in 10.0 mi SSE 3.5 mph - N/A   Clear
5:15 PM 51.8 °F - 14.5 °F 23% 30.26 in 10.0 mi NE 4.6 mph - N/A   Clear
5:35 PM 51.3 °F - 14.4 °F 23% 30.26 in 10.0 mi SE 3.5 mph - N/A   Clear
5:55 PM 50.9 °F - 13.6 °F 23% 30.25 in 10.0 mi Calm Calm - N/A   Clear
6:15 PM 50.5 °F - 14.0 °F 23% 30.25 in 10.0 mi Calm Calm - N/A   Clear
6:35 PM 49.6 °F - 13.8 °F 24% 30.24 in 10.0 mi East 3.5 mph - N/A   Clear
6:55 PM 48.4 °F - 15.1 °F 26% 30.24 in 10.0 mi Calm Calm - N/A   Clear
7:15 PM 46.8 °F - 16.0 °F 29% 30.25 in 10.0 mi Calm Calm - N/A   Clear
7:35 PM 44.2 °F - 21.2 °F 40% 30.26 in 10.0 mi Calm Calm - N/A   Clear
7:55 PM 40.8 °F - 23.2 °F 50% 30.26 in 10.0 mi Calm Calm - N/A   Clear
8:15 PM 39.4 °F - 23.5 °F 53% 30.24 in 10.0 mi Calm Calm - N/A   Clear
8:35 PM 37.8 °F 35.3 °F 25.0 °F 60% 30.23 in 10.0 mi ESE 3.5 mph - N/A   Clear
8:55 PM 36.0 °F - 23.9 °F 62% 30.24 in 10.0 mi Calm Calm - N/A   Clear
9:15 PM 36.5 °F - 24.3 °F 61% 30.24 in 10.0 mi Calm Calm - N/A   Clear
9:35 PM 35.4 °F 31.5 °F 25.3 °F 67% 30.24 in 10.0 mi ESE 4.6 mph - N/A   Clear
9:55 PM 40.5 °F 38.4 °F 20.8 °F 46% 30.23 in 10.0 mi ESE 3.5 mph - N/A   Clear
10:15 PM 43.3 °F 41.7 °F 17.1 °F 35% 30.24 in 10.0 mi SE 3.5 mph - N/A   Clear
10:35 PM 43.0 °F 41.3 °F 16.7 °F 35% 30.24 in 10.0 mi ESE 3.5 mph - N/A   Clear
10:55 PM 43.2 °F 41.5 °F 17.2 °F 35% 30.25 in 10.0 mi SE 3.5 mph - N/A   Clear
11:15 PM 43.2 °F 39.7 °F 17.2 °F 35% 30.25 in 10.0 mi ESE 5.8 mph - N/A   Clear
11:35 PM 43.5 °F 40.9 °F 17.4 °F 35% 30.24 in 10.0 mi SE 4.6 mph - N/A   Clear
11:55 PM 43.5 °F 40.1 °F 17.2 °F 35% 30.23 in 10.0 mi SE 5.8 mph - N/A   Clear